Weather History for Garrison, ND

Change the Weather History Date:

Friday, November 8, 2013

  Actual Average Record
Temperature  
Mean Temperature 40 °F -  
Max Temperature 44 °F 38 °F 73 °F (1999)
Min Temperature 35 °F 19 °F 3 °F (2008)
Degree Days  
Heating Degree Days 25    
Month to date heating degree days 240  
Moisture  
Dew Point 32 °F    
Average Humidity 73    
Maximum Humidity 82    
Minimum Humidity 64    
Precipitation  
Precipitation 0.01 in - - ()
Month to date precipitation 0.02  
Year to date precipitation 28.89  
Sea Level Pressure  
Sea Level Pressure 29.70 in    
Wind  
Wind Speed 11 mph (WSW)    
Max Wind Speed 25 mph    
Max Gust Speed 31 mph    
Averages and records for this station are not official NWS values.
T = Trace of Precipitation, MM = Missing Value Source: NWS Daily Summary

Daily Weather History Graph

Daily Weather History Graph

Search for Another Location

Airport:

Trip Planner

Search our weather history database for the weather conditions in past years. The results will help you decide how hot, cold, wet, or windy it might be!

Date:

Astronomy

Nov. 08, 2013 Rise Set
Actual Time 7:40 AM CST 5:17 PM CST
Civil Twilight 7:08 AM CST 5:50 PM CST
Nautical Twilight 6:31 AM CST 6:27 PM CST
Astronomical Twilight 5:54 AM CST 7:03 PM CST
Moon 12:38 PM CST (11/8) 10:42 PM CST (11/8)
Length of Visible Light 10h 42m
Length of Day
9h 36m
Waxing Crescent, 33% of the Moon is Illuminated
Nov 8
Waxing Crescent
Nov 9
First Quarter
Nov 17
Full
Nov 25
Last Quarter
Dec 2
New

Hourly Weather History & Observations

Time (CST) Temp. Windchill Dew Point Humidity Pressure Visibility Wind Dir Wind Speed Gust Speed Precip Events Conditions
12:52 AM 36.0 °F 29.0 °F 25.0 °F 64% 29.96 in - SE 9.2 mph - N/A   Unknown
1:52 AM 35.1 °F 29.3 °F 25.0 °F 67% 29.91 in - ESE 6.9 mph - N/A   Unknown
2:52 AM 37.0 °F 29.3 °F 26.1 °F 65% 29.84 in - ESE 11.5 mph - N/A   Unknown
3:52 AM 37.0 °F 28.5 °F 27.0 °F 67% 29.77 in - ESE 13.8 mph - N/A   Unknown
4:52 AM 37.9 °F 30.5 °F 26.1 °F 62% 29.76 in - SE 11.5 mph - N/A   Unknown
5:52 AM 37.9 °F 30.5 °F 26.1 °F 62% 29.73 in - SE 11.5 mph - N/A   Unknown
6:52 AM 37.9 °F 29.6 °F 26.1 °F 62% 29.67 in - ESE 13.8 mph - N/A   Unknown
7:52 AM 36.0 °F 27.5 °F 30.0 °F 79% 29.65 in - ESE 12.7 mph - 0.01 in   Unknown
8:52 AM 37.9 °F 31.5 °F 30.0 °F 73% 29.64 in - SE 9.2 mph - N/A   Unknown
9:52 AM 39.0 °F 30.6 °F 30.9 °F 73% 29.62 in - South 15.0 mph - N/A   Unknown
10:52 AM 39.9 °F 33.4 °F 30.9 °F 70% 29.62 in - SW 10.4 mph - N/A   Unknown
11:52 AM 39.9 °F 35.8 °F 30.9 °F 70% 29.60 in - WSW 5.8 mph - N/A   Unknown
12:52 PM 41.0 °F 35.2 °F 32.0 °F 70% 29.58 in - West 9.2 mph - N/A   Unknown
1:52 PM 42.1 °F 35.7 °F 34.0 °F 73% 29.58 in - WNW 11.5 mph - N/A   Unknown
2:52 PM 43.0 °F 33.8 °F 37.0 °F 80% 29.59 in - NW 23.0 mph 28.8 mph N/A   Unknown
3:52 PM 42.1 °F 33.9 °F 37.9 °F 85% 29.62 in - NW 17.3 mph - N/A   Unknown
4:52 PM 42.1 °F 38.4 °F 37.9 °F 85% 29.63 in - NW 5.8 mph - N/A   Unknown
5:52 PM 39.9 °F - 37.0 °F 89% 29.64 in - Calm Calm - N/A   Unknown
6:52 PM 41.0 °F 39.0 °F 37.0 °F 86% 29.66 in - West 3.5 mph - N/A   Unknown
7:52 PM 43.0 °F 33.5 °F 37.0 °F 80% 29.69 in - NW 24.2 mph 33.4 mph N/A   Unknown
8:52 PM 41.0 °F 30.5 °F 35.1 °F 79% 29.73 in - NW 26.5 mph 35.7 mph N/A   Unknown
9:52 PM 37.9 °F 27.3 °F 34.0 °F 86% 29.77 in - NW 21.9 mph 32.2 mph N/A   Unknown
10:52 PM 37.9 °F 27.3 °F 34.0 °F 86% 29.79 in - NW 21.9 mph 31.1 mph N/A   Unknown
11:52 PM 37.9 °F 28.9 °F 33.1 °F 83% 29.82 in - NW 16.1 mph 27.6 mph N/A   Unknown